period_start,C,m1,H,J0,J1,J2,J3,J4,J5,JA,JB,JC,JD,JJ,JK,JN,#
2017-05-05 00:00:36,0.05,0.27,0.00,22.21,25.90,29.79,14.73,48.25,1029.34,2036.01,3389.50,3032.23,3473.09,600.30,605.34,8.98,0000 0000 0000 0000 000000
2017-05-05 00:05:37,0.03,0.27,0.00,22.24,25.90,29.79,14.82,48.17,1029.33,2036.01,3388.66,3031.85,3472.38,600.44,605.49,9.03,0000 0000 0000 0000 000000
2017-05-05 00:10:38,0.04,0.28,0.00,22.24,25.90,29.76,14.72,48.29,1029.37,2036.01,3387.71,3031.07,3471.69,600.12,605.14,9.08,0000 0000 0000 0000 000000
2017-05-05 00:15:40,0.04,0.28,0.00,22.26,25.90,29.76,14.79,48.25,1029.41,2036.01,3386.82,3030.34,3470.95,600.06,605.23,9.13,0000 0000 0000 0000 000000
2017-05-05 00:20:41,0.03,0.28,0.00,22.29,25.90,29.79,14.74,48.26,1029.55,2036.01,3385.91,3029.84,3470.12,600.04,605.16,9.18,0000 0000 0000 0000 000000
2017-05-05 00:25:42,0.04,0.28,0.00,22.30,25.92,29.80,14.75,48.32,1029.58,2036.01,3384.97,3029.05,3469.28,600.04,605.12,9.23,0000 0000 0000 0000 000000
2017-05-05 00:30:44,0.04,0.28,0.00,22.31,25.92,29.78,14.70,48.21,1029.54,2036.00,3384.05,3028.35,3468.57,599.69,604.70,9.28,0000 0000 0000 0000 000000
2017-05-05 00:35:45,0.03,0.29,0.00,22.31,25.92,29.77,14.71,48.17,1029.63,2036.00,3383.14,3027.81,3467.84,599.83,604.84,9.33,0000 0000 0000 0000 000000
2017-05-05 00:40:46,0.04,0.29,0.00,22.34,25.93,29.83,14.77,48.16,1029.59,2036.00,3382.23,3027.04,3467.03,600.15,605.32,9.38,0000 0000 0000 0000 000000
2017-05-05 00:45:47,0.05,0.29,0.00,22.32,25.95,29.85,14.74,48.31,1029.61,2036.00,3381.31,3026.38,3466.22,599.92,604.97,9.43,0000 0000 0000 0000 000000
2017-05-05 00:50:48,0.04,0.29,0.00,22.35,25.95,29.78,14.77,48.22,1029.57,2036.00,3380.36,3025.83,3465.49,600.33,605.27,9.48,0000 0000 0000 0000 000000
2017-05-05 00:55:49,0.04,0.30,0.00,22.37,25.96,29.83,14.73,48.29,1029.65,2036.00,3379.49,3025.05,3464.76,599.42,604.50,9.53,0000 0000 0000 0000 000000
2017-05-05 01:00:51,0.04,0.30,0.00,22.38,25.97,29.82,14.77,48.23,1029.55,2036.00,3378.58,3024.39,3463.98,600.17,605.03,9.58,0000 0000 0000 0000 000000
2017-05-05 01:05:52,0.04,0.30,0.00,22.41,25.98,29.85,14.75,48.27,1029.50,2036.00,3377.64,3023.83,3463.11,599.89,604.68,9.63,0000 0000 0000 0000 000000
2017-05-05 01:10:53,0.05,0.30,0.00,22.40,26.00,29.87,14.72,48.13,1029.42,2035.99,3376.63,3023.04,3462.34,600.15,604.86,9.68,0000 0000 0000 0000 000000
2017-05-05 01:15:55,0.05,0.31,0.00,22.40,26.00,29.90,14.76,48.24,1029.36,2035.97,3375.64,3022.19,3461.42,599.91,604.60,9.73,0000 0000 0000 0000 000000
2017-05-05 01:20:56,0.03,0.31,0.00,22.45,26.02,29.88,14.74,48.18,1029.34,2035.97,3374.78,3021.70,3460.77,600.16,604.81,9.78,0000 0000 0000 0000 000000
2017-05-05 01:25:57,0.03,0.31,0.00,22.46,26.02,29.87,14.75,48.25,1029.34,2035.96,3373.79,3020.97,3459.93,600.01,604.60,9.83,0000 0000 0000 0000 000000
2017-05-05 01:30:58,0.04,0.31,0.00,22.48,26.04,29.93,14.75,48.25,1029.33,2035.97,3372.91,3020.16,3459.08,600.02,604.57,9.88,0000 0000 0000 0000 000000
2017-05-05 01:36:00,0.04,0.31,0.00,22.50,26.05,29.92,14.73,48.23,1029.32,2035.94,3371.98,3019.65,3458.37,600.14,604.67,9.93,0000 0000 0000 0000 000000
2017-05-05 01:41:01,0.03,0.32,0.00,22.51,26.07,29.91,14.79,48.32,1029.32,2035.86,3371.05,3019.00,3457.59,600.21,604.60,9.98,0000 0000 0000 0000 000000
2017-05-05 01:46:02,0.03,0.32,0.00,22.52,26.07,29.97,14.74,48.21,1029.32,2035.77,3370.17,3018.23,3456.87,600.25,604.72,10.03,0000 0000 0000 0000 000000
2017-05-05 01:51:04,0.03,0.32,0.00,22.54,26.09,29.94,14.76,48.27,1029.33,2035.58,3369.21,3017.65,3456.05,600.15,604.66,10.08,0000 0000 0000 0000 000000
2017-05-05 01:56:05,0.02,0.32,0.00,22.56,26.10,29.97,14.82,48.26,1029.33,2035.51,3368.38,3016.95,3455.30,600.44,604.85,10.14,0000 0000 0000 0000 000000
2017-05-05 02:01:06,0.02,0.32,0.00,22.56,26.12,30.00,14.74,48.20,1029.33,2035.17,3367.31,3016.11,3454.52,600.08,604.44,10.19,0000 0000 0000 0000 000000
2017-05-05 02:06:08,0.04,0.32,0.00,22.58,26.13,29.98,14.81,48.16,1029.34,2035.12,3366.40,3015.50,3453.79,600.04,604.43,10.24,0000 0000 0000 0000 000000
2017-05-05 02:11:09,0.02,0.33,0.00,22.63,26.15,29.97,14.73,48.24,1029.35,2035.03,3365.54,3014.96,3453.02,599.81,604.01,10.29,0000 0000 0000 0000 000000
2017-05-05 02:16:11,0.05,0.33,0.00,22.62,26.17,30.01,14.81,48.29,1029.33,2035.05,3364.76,3014.12,3452.15,600.20,604.48,10.34,0000 0000 0000 0000 000000
2017-05-05 02:21:12,0.05,0.33,0.00,22.67,26.18,29.97,14.71,48.38,1029.34,2035.02,3363.67,3013.46,3451.43,600.03,604.17,10.39,0000 0000 0000 0000 000000
2017-05-05 02:26:14,0.02,0.33,0.00,22.71,26.20,30.07,14.72,48.13,1029.33,2035.00,3362.80,3012.89,3450.64,599.94,603.87,10.44,0000 0000 0000 0000 000000
2017-05-05 02:31:15,0.05,0.33,0.00,22.70,26.22,30.08,14.70,48.23,1029.33,2035.00,3361.75,3012.04,3449.74,599.98,604.09,10.49,0000 0000 0000 0000 000000
2017-05-05 02:36:16,0.04,0.34,0.00,22.74,26.24,30.07,14.80,48.25,1029.32,2035.00,3360.77,3011.29,3448.96,600.25,604.34,10.54,0000 0000 0000 0000 000000
2017-05-05 02:41:17,0.04,0.34,0.00,22.75,26.25,30.08,14.74,48.13,1029.32,2035.00,3359.82,3010.71,3448.08,600.02,604.01,10.59,0000 0000 0000 0000 000000
2017-05-05 02:46:18,0.03,0.34,0.00,22.76,26.27,30.10,14.71,48.24,1029.32,2034.99,3358.83,3009.99,3447.29,599.96,603.97,10.64,0000 0000 0000 0000 000000
2017-05-05 02:51:19,0.05,0.34,0.00,22.80,26.29,30.17,14.75,48.28,1029.32,2034.98,3357.83,3009.14,3446.47,599.88,603.79,10.69,0000 0000 0000 0000 000000
2017-05-05 02:56:20,0.04,0.35,0.00,22.83,26.31,30.14,14.70,48.32,1029.31,2034.95,3356.88,3008.44,3445.64,599.73,603.65,10.74,0000 0000 0000 0000 000000
2017-05-05 03:01:22,0.01,0.35,0.00,22.84,26.33,30.20,14.66,48.13,1029.31,2034.89,3355.95,3007.92,3444.86,599.57,603.36,10.79,0000 0000 0000 0000 000000
2017-05-05 03:06:23,0.03,0.35,0.00,22.83,26.35,30.16,14.72,48.19,1029.31,2034.73,3354.98,3007.11,3444.02,600.09,603.79,10.84,0000 0000 0000 0000 000000
2017-05-05 03:11:25,0.02,0.35,0.00,22.85,26.37,30.21,14.73,48.30,1029.31,2034.27,3353.95,3006.47,3443.13,599.88,603.65,10.89,0000 0000 0000 0000 000000
2017-05-05 03:16:26,0.02,0.35,0.00,22.91,26.39,30.29,14.73,48.27,1029.31,2034.08,3353.03,3005.79,3442.30,599.99,603.61,10.94,0000 0000 0000 0000 000000
2017-05-05 03:21:27,0.04,0.35,0.00,23.21,26.42,30.18,14.60,48.05,1029.31,2034.02,3352.11,3005.02,3441.45,599.90,602.98,10.99,0000 0000 0000 0000 000000
2017-05-05 03:26:28,0.05,0.36,0.00,23.26,26.46,30.16,14.71,48.23,1029.31,2034.00,3351.11,3004.18,3440.60,600.03,602.98,11.04,0000 0000 0000 0000 000000
2017-05-05 03:31:30,0.05,0.36,0.00,23.49,26.50,30.19,14.65,48.17,1029.31,2034.00,3350.10,3003.45,3439.73,599.81,602.38,11.09,0000 0000 0000 0000 000000
2017-05-05 03:36:31,0.05,0.36,0.00,23.27,26.53,30.22,14.73,48.17,1029.31,2033.99,3349.09,3002.65,3438.76,600.31,603.13,11.14,0000 0000 0000 0000 000000
2017-05-05 03:41:33,0.03,0.36,0.00,23.13,26.55,30.30,14.74,48.19,1029.30,2033.98,3348.08,3001.99,3437.95,600.06,603.27,11.19,0000 0000 0000 0000 000000
2017-05-05 03:46:34,0.05,0.37,0.00,23.11,26.57,30.45,14.64,48.03,1029.29,2033.96,3347.09,3001.19,3437.08,599.74,603.00,11.24,0000 0000 0000 0000 000000
2017-05-05 03:51:35,0.03,0.37,0.00,23.07,26.57,30.51,14.78,48.17,1029.25,2033.87,3346.16,3000.70,3436.35,600.50,603.81,11.29,0000 0000 0000 0000 000000
2017-05-05 03:56:37,0.00,0.37,0.00,23.04,26.60,30.44,14.66,48.06,1029.06,2033.62,3345.39,3000.03,3435.83,599.49,602.73,11.34,0000 0000 0000 0000 000000
2017-05-05 04:01:38,0.01,0.37,0.00,23.09,26.60,30.37,14.78,48.28,1029.02,2033.42,3344.83,2999.76,3435.08,600.29,603.47,11.39,0000 0000 0000 0000 000000
2017-05-05 04:06:40,0.03,0.37,0.00,23.12,26.60,30.38,14.68,48.18,1028.94,2033.37,3344.04,2999.05,3434.72,599.91,602.86,11.44,0000 0000 0000 0000 000000
2017-05-05 04:11:41,0.03,0.37,0.00,23.35,26.62,30.31,14.67,48.09,1028.89,2033.23,3343.29,2998.73,3434.01,600.08,602.59,11.49,0000 0000 0000 0000 000000
2017-05-05 04:16:42,0.02,0.37,0.00,23.35,26.65,30.25,14.62,48.22,1028.85,2033.04,3342.64,2998.02,3433.22,600.01,602.50,11.54,0000 0000 0000 0000 000000
2017-05-05 04:21:43,0.04,0.37,0.00,23.62,26.67,30.24,14.57,48.08,1028.84,2033.01,3341.92,2997.39,3432.70,599.77,601.76,11.59,0000 0000 0000 0000 000000
2017-05-05 04:26:45,0.02,0.38,0.00,23.79,26.70,30.30,14.54,48.15,1028.83,2033.00,3341.07,2996.96,3432.00,599.84,601.38,11.64,0000 0000 0000 0000 000000
2017-05-05 04:31:46,0.05,0.38,0.00,23.91,26.73,30.35,14.67,48.02,1028.83,2033.00,3340.35,2996.21,3431.28,600.23,601.57,11.69,0000 0000 0000 0000 000000
2017-05-05 04:36:47,0.03,0.38,0.00,24.02,26.76,30.37,14.66,48.08,1028.84,2033.00,3339.59,2995.83,3430.72,600.22,601.35,11.74,0000 0000 0000 0000 000000
2017-05-05 04:41:48,0.04,0.38,0.00,24.07,26.78,30.40,14.66,48.17,1028.83,2032.99,3338.67,2995.05,3429.96,600.14,601.13,11.79,0000 0000 0000 0000 000000
2017-05-05 04:46:50,0.03,0.38,0.00,24.10,26.80,30.41,14.61,48.05,1028.83,2032.93,3337.99,2994.47,3429.12,600.02,601.08,11.84,0000 0000 0000 0000 000000
2017-05-05 04:51:51,0.01,0.39,0.00,23.93,26.81,30.42,14.59,48.08,1028.83,2032.84,3337.18,2994.01,3428.78,600.08,601.27,11.89,0000 0000 0000 0000 000000
2017-05-05 04:56:52,0.01,0.39,0.00,23.60,26.82,30.39,14.70,48.20,1028.83,2032.66,3336.61,2993.71,3428.05,600.26,602.21,11.94,0000 0000 0000 0000 000000
2017-05-05 05:01:53,-0.00,0.39,0.00,23.45,26.82,30.46,14.67,48.25,1028.83,2032.33,3335.77,2993.03,3427.64,599.84,602.18,11.99,0000 0000 0000 0000 000000
2017-05-05 05:06:54,0.02,0.39,0.00,23.38,26.81,30.58,14.65,48.27,1028.83,2032.16,3335.03,2992.83,3427.01,599.62,602.03,12.04,0000 0000 0000 0000 000000
2017-05-05 05:11:55,0.03,0.39,0.00,23.35,26.80,30.56,14.74,48.21,1028.83,2032.09,3334.39,2992.06,3426.56,600.06,602.47,12.09,0000 0000 0000 0000 000000
2017-05-05 05:16:57,0.02,0.39,0.00,23.39,26.80,30.50,14.69,48.05,1028.81,2032.17,3333.87,2991.98,3426.03,599.82,602.06,12.14,0000 0000 0000 0000 000000
2017-05-05 05:21:58,0.04,0.39,0.00,23.65,26.80,30.36,14.64,48.10,1028.82,2032.11,3333.07,2991.39,3425.70,600.14,602.00,12.19,0000 0000 0000 0000 000000
2017-05-05 05:26:59,0.03,0.39,0.00,23.54,26.80,30.25,14.63,48.14,1028.82,2032.19,3332.59,2991.01,3425.04,600.22,602.15,12.24,0000 0000 0000 0000 000000
2017-05-05 05:32:00,0.02,0.39,0.00,23.87,26.82,30.29,14.60,48.17,1028.82,2032.17,3331.95,2990.64,3424.71,600.02,601.51,12.29,0000 0000 0000 0000 000000
2017-05-05 05:37:02,0.02,0.40,0.00,24.00,26.83,30.32,14.62,48.02,1028.82,2032.08,3331.10,2990.01,3424.01,599.99,601.19,12.34,0000 0000 0000 0000 000000
2017-05-05 05:42:03,0.08,0.40,0.00,24.10,26.85,30.37,14.63,48.19,1028.82,2032.03,3329.65,2989.05,3422.77,599.95,600.91,12.39,0000 0000 0000 0000 000000
2017-05-05 05:47:04,0.04,0.40,0.00,24.13,26.86,30.40,14.62,48.17,1028.77,2032.04,3328.48,2988.07,3422.00,599.89,600.83,12.44,0000 0000 0000 0000 000000
2017-05-05 05:52:06,0.02,0.40,0.00,24.22,26.87,30.38,14.64,48.17,1028.64,2032.00,3327.88,2987.91,3421.37,600.18,600.75,12.50,0000 0000 0000 0000 000000
2017-05-05 05:57:07,0.03,0.41,0.00,24.29,26.87,30.40,14.58,48.09,1028.56,2032.01,3327.08,2987.14,3420.89,599.95,600.41,12.55,0000 0000 0000 0000 000000
2017-05-05 06:02:09,0.04,0.41,0.00,24.18,26.87,30.41,14.56,48.14,1028.47,2032.01,3326.20,2986.74,3420.08,599.64,600.19,12.60,0000 0000 0000 0000 000000
2017-05-05 06:07:10,0.03,0.41,0.00,23.85,26.87,30.38,14.57,48.17,1028.39,2032.00,3325.60,2986.07,3419.70,599.28,600.51,12.65,0000 0000 0000 0000 000000
2017-05-05 06:12:11,0.05,0.41,0.00,23.66,26.87,30.44,14.65,48.18,1028.39,2032.00,3324.46,2985.50,3418.90,600.32,601.92,12.70,0000 0000 0000 0000 000000
2017-05-05 06:17:12,0.03,0.41,0.00,23.67,26.86,30.61,14.66,48.23,1028.37,2032.00,3323.63,2985.00,3418.10,600.24,601.81,12.75,0000 0000 0000 0000 000000
2017-05-05 06:22:14,0.06,0.42,0.00,23.88,26.85,30.35,14.63,48.27,1028.36,2032.00,3322.34,2984.14,3417.33,600.00,601.02,12.80,0000 0000 0000 0000 000000
2017-05-05 06:27:15,0.10,0.42,0.00,23.80,26.85,30.26,14.60,48.23,1028.35,2032.00,3320.48,2982.69,3415.71,600.35,601.56,12.85,0000 0000 0000 0000 000000
2017-05-05 06:32:16,0.05,0.42,0.00,24.06,26.86,30.29,14.50,48.09,1028.37,2032.00,3318.86,2981.80,3414.60,599.67,600.46,12.90,0000 0000 0000 0000 000000
2017-05-05 06:37:18,0.02,0.43,0.00,24.15,26.87,30.34,14.53,48.23,1028.35,2032.00,3318.04,2981.05,3414.00,599.55,600.24,12.95,0000 0000 0000 0000 000000
2017-05-05 06:42:19,0.02,0.43,0.00,24.18,26.87,30.37,14.57,48.16,1028.35,2032.00,3317.41,2980.98,3413.51,599.99,600.49,13.00,0000 0000 0000 0000 000000
2017-05-05 06:47:20,0.03,0.43,0.00,24.30,26.87,30.39,14.58,48.09,1028.36,2032.00,3316.74,2980.26,3413.00,600.06,600.36,13.05,0000 0000 0000 0000 000000
2017-05-05 06:52:21,0.02,0.43,0.00,24.30,26.87,30.40,14.48,48.08,1028.36,2032.00,3315.96,2979.93,3412.36,599.98,600.23,13.10,0000 0000 0000 0000 000000
2017-05-05 06:57:22,0.04,0.43,0.00,24.35,26.88,30.42,14.47,48.07,1028.35,2032.00,3315.10,2979.18,3411.87,600.01,600.19,13.15,0000 0000 0000 0000 000000
2017-05-05 07:02:24,0.03,0.43,0.00,24.37,26.87,30.41,14.52,48.08,1028.34,2032.00,3314.22,2978.86,3411.06,599.73,599.76,13.20,0000 0000 0000 0000 000000
2017-05-05 07:07:25,0.03,0.44,0.00,24.34,26.87,30.42,14.60,48.16,1028.34,2032.00,3313.73,2978.14,3410.78,599.64,599.91,13.25,0000 0000 0000 0000 000000
2017-05-05 07:12:27,0.02,0.44,0.00,24.39,26.87,30.40,14.46,48.13,1028.34,2032.00,3313.02,2977.99,3410.04,599.85,599.93,13.30,0000 0000 0000 0000 000000
2017-05-05 07:17:28,0.02,0.44,0.00,24.39,26.87,30.39,14.45,48.14,1028.34,2032.00,3312.39,2977.69,3409.94,599.65,599.78,13.35,0000 0000 0000 0000 000000
2017-05-05 07:22:29,0.03,0.44,0.00,24.42,26.87,30.40,14.61,48.11,1028.34,2032.00,3311.87,2977.04,3409.15,600.31,600.23,13.40,0000 0000 0000 0000 000000
2017-05-05 07:27:31,0.01,0.44,0.00,24.37,26.85,30.40,14.62,48.13,1028.34,2032.00,3311.06,2976.97,3408.98,600.07,600.23,13.45,0000 0000 0000 0000 000000
2017-05-05 07:32:32,0.04,0.44,0.00,24.36,26.85,30.39,14.55,48.23,1028.34,2032.02,3310.55,2976.46,3408.41,599.84,600.00,13.50,0000 0000 0000 0000 000000
2017-05-05 07:37:34,0.01,0.44,0.00,24.35,26.85,30.40,14.56,48.19,1028.34,2032.03,3309.96,2976.01,3408.01,599.80,599.98,13.55,0000 0000 0000 0000 000000
2017-05-05 07:42:35,0.02,0.45,0.00,24.20,26.82,30.40,14.60,48.10,1028.34,2032.01,3309.12,2975.86,3407.57,600.37,600.81,13.60,0000 0000 0000 0000 000000
2017-05-05 07:47:37,0.03,0.45,0.00,24.10,26.82,30.33,14.56,48.14,1028.33,2032.00,3308.61,2975.17,3407.02,599.76,600.50,13.65,0000 0000 0000 0000 000000
2017-05-05 07:52:38,0.01,0.45,0.00,24.11,26.82,30.33,14.60,48.10,1028.32,2032.03,3307.99,2974.99,3406.81,599.93,600.56,13.70,0000 0000 0000 0000 000000
2017-05-05 07:57:39,0.04,0.45,0.00,24.19,26.81,30.29,14.48,48.14,1028.33,2032.04,3307.16,2974.32,3406.05,599.95,600.40,13.75,0000 0000 0000 0000 000000
2017-05-05 08:02:40,0.03,0.45,0.00,24.26,26.80,30.28,14.69,48.27,1028.33,2032.03,3306.47,2973.99,3405.55,600.26,600.52,13.80,0000 0000 0000 0000 000000
2017-05-05 08:07:42,0.03,0.45,0.00,24.33,26.81,30.27,14.51,48.16,1028.32,2032.03,3305.78,2973.28,3405.01,599.97,600.13,13.85,0000 0000 0000 0000 000000
2017-05-05 08:12:43,0.02,0.46,0.00,24.34,26.80,30.29,14.65,48.28,1028.30,2032.03,3305.04,2973.00,3404.39,600.47,600.53,13.90,0000 0000 0000 0000 000000
2017-05-05 08:17:44,0.03,0.46,0.00,24.31,26.80,30.31,14.59,48.23,1028.29,2032.04,3304.49,2972.62,3403.99,599.95,600.16,13.95,0000 0000 0000 0000 000000
2017-05-05 08:22:45,0.02,0.46,0.00,24.30,26.80,30.33,14.48,48.19,1028.29,2032.08,3303.99,2972.05,3403.61,600.15,600.41,14.00,0000 0000 0000 0000 000000
2017-05-05 08:27:47,0.02,0.46,0.00,24.35,26.80,30.32,14.59,48.24,1028.26,2032.10,3303.19,2971.96,3403.04,600.37,600.50,14.05,0000 0000 0000 0000 000000
2017-05-05 08:32:48,0.04,0.46,0.00,24.34,26.80,30.30,14.62,48.24,1028.16,2032.05,3302.48,2971.32,3402.57,600.17,600.26,14.10,0000 0000 0000 0000 000000
2017-05-05 08:37:49,0.03,0.46,0.00,24.40,26.80,30.30,14.52,48.25,1028.02,2032.16,3302.01,2971.00,3402.01,599.87,599.78,14.15,0000 0000 0000 0000 000000
2017-05-05 08:42:50,0.01,0.46,0.00,24.38,26.80,30.30,14.44,48.15,1028.12,2032.20,3301.44,2970.89,3401.91,599.88,599.90,14.20,0000 0000 0000 0000 000000
2017-05-05 08:47:52,0.05,0.47,0.00,24.36,26.79,30.29,14.49,48.19,1028.12,2032.22,3300.74,2970.12,3401.12,600.19,600.18,14.25,0000 0000 0000 0000 000000
2017-05-05 08:52:53,0.03,0.47,0.00,24.40,26.77,30.29,14.49,48.21,1028.05,2032.45,3300.02,2969.98,3400.93,599.84,599.75,14.30,0000 0000 0000 0000 000000
2017-05-05 08:57:54,0.05,0.47,0.00,24.37,26.77,30.28,14.49,48.25,1027.93,2032.52,3299.35,2969.50,3400.26,599.78,599.67,14.35,0000 0000 0000 0000 000000
2017-05-05 09:02:55,0.02,0.47,0.00,24.37,26.77,30.25,14.55,48.25,1027.88,2032.65,3299.00,2969.06,3400.01,599.97,599.81,14.40,0000 0000 0000 0000 000000
2017-05-05 09:07:57,0.02,0.47,0.00,24.43,26.77,30.23,14.55,48.22,1027.89,2032.78,3298.53,2968.99,3399.81,599.88,599.74,14.45,0000 0000 0000 0000 000000
2017-05-05 09:12:58,0.03,0.47,0.00,24.41,26.77,30.22,14.53,48.27,1027.95,2032.56,3297.56,2968.37,3398.79,600.08,599.87,14.50,0000 0000 0000 0000 000000
2017-05-05 09:17:59,0.73,0.50,0.00,24.37,26.77,30.18,14.58,48.24,1027.98,2032.50,3284.92,2959.74,3389.64,600.07,599.93,14.55,0000 0000 0000 0000 000000
2017-05-05 09:23:01,0.08,0.52,0.00,24.43,26.77,30.19,14.57,48.26,1028.11,2032.33,3279.48,2956.01,3385.62,600.14,599.95,14.60,0000 0000 0000 0000 000000
2017-05-05 09:28:02,0.05,0.52,0.00,24.39,26.77,30.20,14.55,48.23,1028.12,2032.30,3277.97,2955.09,3384.58,600.01,600.03,14.65,0000 0000 0000 0000 000000
2017-05-05 09:33:03,0.02,0.52,0.00,24.39,26.76,30.20,14.47,48.29,1028.08,2032.22,3277.12,2954.90,3384.02,600.04,599.98,14.70,0000 0000 0000 0000 000000
2017-05-05 09:38:04,0.04,0.52,0.00,24.40,26.75,30.24,14.56,48.33,1028.03,2032.22,3276.65,2954.17,3383.88,600.06,599.87,14.76,0000 0000 0000 0000 000000
2017-05-05 09:43:05,0.03,0.52,0.00,24.44,26.75,30.20,14.51,48.29,1027.95,2032.38,3276.01,2954.00,3383.12,599.93,599.76,14.81,0000 0000 0000 0000 000000
2017-05-05 09:48:07,0.02,0.53,0.00,24.44,26.75,30.16,14.64,48.45,1028.00,2032.31,3275.36,2953.74,3382.96,600.26,599.96,14.86,0000 0000 0000 0000 000000
2017-05-05 09:53:08,0.02,0.53,0.00,24.41,26.75,30.13,14.50,48.23,1027.95,2032.18,3274.97,2953.06,3382.36,599.92,599.74,14.91,0000 0000 0000 0000 000000
2017-05-05 09:58:09,0.04,0.53,0.00,24.41,26.75,30.13,14.48,48.35,1028.00,2032.31,3274.20,2953.00,3382.01,599.88,599.73,14.96,0000 0000 0000 0000 000000
2017-05-05 10:03:10,0.01,0.53,0.00,24.44,26.75,30.10,14.48,48.30,1027.98,2032.53,3273.96,2952.78,3381.82,600.12,599.73,15.01,0000 0000 0000 0000 000000
2017-05-05 10:08:12,0.07,0.53,0.00,24.42,26.75,30.03,14.60,48.36,1028.15,2032.64,3273.25,2952.14,3381.11,600.18,600.09,15.06,0000 0000 0000 0000 000000
2017-05-05 10:13:13,-0.00,0.53,0.00,24.51,26.75,30.02,14.49,48.19,1028.10,2032.69,3272.93,2952.00,3380.99,600.14,599.90,15.11,0000 0000 0000 0000 000000
2017-05-05 10:18:14,0.03,0.53,0.00,24.50,26.75,29.98,14.51,48.14,1028.23,2032.62,3272.19,2951.88,3380.62,599.85,599.60,15.16,0000 0000 0000 0000 000000
2017-05-05 10:23:16,0.02,0.54,0.00,24.54,26.75,29.96,14.49,48.25,1028.28,2032.63,3271.86,2951.17,3380.04,599.67,599.42,15.21,0000 0000 0000 0000 000000
2017-05-05 10:28:17,-0.01,0.53,0.00,24.55,26.75,29.94,14.46,48.33,1028.18,2032.33,3271.07,2950.99,3379.81,599.92,599.51,15.26,0000 0000 0000 0000 000000
2017-05-05 10:33:19,0.04,0.54,0.00,24.52,26.75,29.94,14.52,48.24,1027.98,2032.31,3270.63,2950.65,3379.06,600.26,599.84,15.31,0000 0000 0000 0000 000000
2017-05-05 10:38:20,0.01,0.54,0.00,24.55,26.75,29.95,14.51,48.25,1027.94,2032.37,3270.02,2950.05,3378.98,600.20,599.70,15.36,0000 0000 0000 0000 000000
2017-05-05 10:43:21,0.02,0.54,0.00,24.56,26.75,29.95,14.51,48.18,1027.88,2032.25,3269.41,2949.98,3378.27,600.06,599.60,15.41,0000 0000 0000 0000 000000
2017-05-05 10:48:22,0.02,0.54,0.00,24.61,26.77,29.97,14.53,48.18,1027.87,2032.23,3268.98,2949.47,3378.00,599.96,599.35,15.46,0000 0000 0000 0000 000000
2017-05-05 10:53:24,0.02,0.54,0.00,24.67,26.77,29.99,14.40,48.08,1027.91,2032.20,3268.25,2949.01,3377.50,599.63,598.91,15.51,0000 0000 0000 0000 000000
2017-05-05 10:58:25,0.03,0.54,0.00,24.66,26.77,30.02,14.62,48.25,1027.93,2032.34,3267.97,2948.98,3377.04,600.26,599.38,15.56,0000 0000 0000 0000 000000
2017-05-05 11:03:27,0.01,0.54,0.00,24.77,26.77,30.05,14.44,48.07,1027.88,2032.18,3267.17,2948.29,3376.87,599.60,598.66,15.61,0000 0000 0000 0000 000000
2017-05-05 11:08:28,0.01,0.54,0.00,24.82,26.78,30.09,14.56,47.99,1027.92,2032.15,3266.89,2948.01,3376.13,599.99,598.98,15.66,0000 0000 0000 0000 000000
2017-05-05 11:13:29,0.01,0.55,0.00,24.81,26.79,30.11,14.49,48.08,1027.92,2032.06,3266.07,2947.85,3375.96,600.03,598.99,15.71,0000 0000 0000 0000 000000
2017-05-05 11:18:30,0.04,0.55,0.00,24.80,26.80,30.11,14.50,48.05,1027.97,2032.03,3265.54,2947.09,3375.31,600.13,599.03,15.76,0000 0000 0000 0000 000000
2017-05-05 11:23:32,0.01,0.55,0.00,24.76,26.80,30.10,14.54,48.13,1028.05,2032.01,3264.95,2946.98,3374.97,600.19,599.36,15.81,0000 0000 0000 0000 000000
2017-05-05 11:28:33,0.05,0.55,0.00,24.75,26.80,30.05,14.52,48.12,1028.20,2032.02,3264.13,2946.48,3374.27,600.37,599.65,15.86,0000 0000 0000 0000 000000
2017-05-05 11:33:34,0.02,0.55,0.00,24.69,26.80,30.10,14.53,48.17,1028.20,2032.03,3263.63,2946.03,3373.99,600.11,599.57,15.91,0000 0000 0000 0000 000000
2017-05-05 11:38:36,0.04,0.55,0.00,24.62,26.80,30.11,14.43,48.17,1028.15,2032.01,3262.81,2945.60,3373.37,599.85,599.36,15.96,0000 0000 0000 0000 000000
2017-05-05 11:43:37,0.04,0.55,0.00,24.61,26.78,30.14,14.53,48.06,1028.06,2032.02,3261.71,2944.90,3372.51,600.12,599.61,16.01,0000 0000 0000 0000 000000
2017-05-05 11:48:38,0.04,0.56,0.00,24.57,26.77,30.13,14.52,48.17,1027.96,2032.01,3260.59,2944.08,3371.84,599.83,599.35,16.06,0000 0000 0000 0000 000000
2017-05-05 11:53:39,0.02,0.56,0.00,24.52,26.77,30.19,14.47,48.12,1027.87,2032.02,3259.91,2943.98,3371.07,600.03,599.57,16.11,0000 0000 0000 0000 000000
2017-05-05 11:58:41,0.05,0.56,0.00,24.49,26.76,30.18,14.62,48.25,1027.86,2032.04,3259.06,2943.22,3370.73,600.21,599.78,16.16,0000 0000 0000 0000 000000
2017-05-05 12:03:42,0.02,0.56,0.00,24.49,26.75,30.19,14.54,48.22,1027.85,2032.03,3258.22,2942.98,3370.05,600.33,599.96,16.21,0000 0000 0000 0000 000000
2017-05-05 12:08:43,0.06,0.56,0.00,24.46,26.74,30.19,14.55,48.17,1027.85,2032.04,3257.18,2942.22,3369.42,599.93,599.61,16.26,0000 0000 0000 0000 000000
2017-05-05 12:13:45,0.07,0.57,0.00,24.46,26.72,30.18,14.59,48.17,1027.85,2032.07,3255.46,2941.07,3368.10,600.10,599.76,16.31,0000 0000 0000 0000 000000
2017-05-05 12:18:46,0.06,0.57,0.00,24.39,26.71,30.18,14.49,48.18,1027.85,2032.35,3254.52,2940.64,3367.68,600.03,599.79,16.36,0000 0000 0000 0000 000000
2017-05-05 12:23:47,0.04,0.58,0.00,24.43,26.70,30.17,14.51,48.17,1027.84,2032.48,3253.54,2940.02,3366.97,599.98,599.67,16.41,0000 0000 0000 0000 000000
2017-05-05 12:28:49,0.04,0.58,0.00,24.40,26.68,30.15,14.60,48.21,1027.84,2032.49,3252.79,2939.42,3366.13,600.28,600.08,16.46,0000 0000 0000 0000 000000
2017-05-05 12:33:50,0.04,0.58,0.00,24.43,26.67,30.17,14.47,48.21,1027.83,2032.75,3252.05,2939.02,3366.00,599.83,599.72,16.51,0000 0000 0000 0000 000000
2017-05-05 12:38:51,0.02,0.58,0.00,24.43,26.66,30.15,14.55,48.10,1027.84,2032.92,3251.76,2938.98,3365.73,600.10,599.67,16.56,0000 0000 0000 0000 000000
2017-05-05 12:43:52,0.03,0.58,0.00,24.38,26.65,30.14,14.54,48.06,1027.82,2032.94,3251.05,2938.70,3365.05,599.87,599.66,16.61,0000 0000 0000 0000 000000
2017-05-05 12:48:54,0.02,0.58,0.00,24.34,26.64,30.12,14.48,48.08,1027.81,2032.97,3250.84,2938.07,3365.00,599.66,599.54,16.66,0000 0000 0000 0000 000000
2017-05-05 12:53:55,0.02,0.59,0.00,24.37,26.62,30.13,14.52,48.14,1027.63,2032.99,3250.10,2938.00,3364.83,599.90,599.62,16.71,0000 0000 0000 0000 000000